Flag for Turkey Weather past 2 weeks in Konya, Turkey

Now
88 °F

Passing clouds.


Feels Like: 84 °F
Forecast: 69 / 91 °F
Wind: 12 mph from North

Location: Konya Airport

Current Time: Aug 20, 2014 at 6:41:00 PM

Latest Report: Aug 20, 2014 at 5:50 PM


Visibility: N/A

Pressure: 30.01 "Hg

Humidity: 21%

Dew point: 43 °F

Location of KonyaLocation

Historic Weather in Konya — Graph

°F

Konya temperature yesterday

Maximum temperature yesterday: 84 °F (at 3:50 PM)
Minimum temperature yesterday: 66 °F (at 5:50 AM)
Average temperature yesterday: 75 °F

Past Weeks' High & Low Weather Summary

 TemperatureHumidityPressure
High97 °F (Aug 17, 2:50 PM)68% (Aug 6, 4:50 AM)30.09 "Hg (Aug 6, 4:50 AM)
Low61 °F (Aug 8, 4:50 AM)9% (Aug 17, 2:50 PM)29.71 "Hg (Aug 17, 5:50 PM)
Average78 °F34%29.93 "Hg
* Reported Aug 5 5:50 PM — Aug 20 5:50 PM, Konya, Weather by CustomWeather, © 2014

Note: Actual official high and low records may vary slightly from our data, if they occured in-between our weather recording intervals... More about our weather records

Advertising

Konya weather history for previous 24 hours

 ConditionsComfort  
Time TempWeatherWind HumidityBarometerVisibility
5:50 PM
Aug 20
88 °FPassing clouds.12 mph21%30.01 "HgN/A
4:50 PM86 °FPassing clouds.12 mph22%30.04 "HgN/A
3:50 PM88 °FPassing clouds.9 mph24%30.04 "HgN/A
2:50 PM84 °FPassing clouds.12 mph31%30.07 "HgN/A
1:50 PM84 °FPassing clouds.12 mph31%30.07 "HgN/A
12:50 PM82 °FPassing clouds.14 mph35%30.07 "HgN/A
11:50 AM82 °FPassing clouds.14 mph35%30.07 "HgN/A
10:50 AM79 °FPassing clouds.15 mph42%30.09 "HgN/A
9:50 AM75 °FSunny.17 mph50%30.09 "Hg10 mi
8:50 AM72 °FSunny.20 mph57%30.07 "Hg10 mi
7:50 AM70 °FSunny.16 mph60%30.07 "Hg10 mi
6:50 AM68 °FClear.20 mph60%30.07 "Hg10 mi
5:50 AM66 °FClear.14 mph64%30.04 "Hg10 mi
4:50 AM68 °FClear.7 mph60%30.04 "Hg10 mi
3:50 AM68 °FClear.7 mph60%30.04 "Hg10 mi
2:50 AM70 °FClear.10 mph60%30.04 "Hg10 mi
1:50 AM72 °FClear.12 mph57%30.04 "Hg10 mi
12:50 AM72 °FClear.16 mph57%30.04 "Hg10 mi
11:50 PM
Aug 19
73 °FClear.15 mph50%30.04 "Hg10 mi
10:50 PM75 °FClear.18 mph44%30.04 "Hg10 mi
9:50 PM75 °FPassing clouds.15 mph44%30.01 "HgN/A
8:50 PM77 °FPassing clouds.10 mph42%30.01 "HgN/A
7:50 PM79 °FPassing clouds.14 mph34%29.98 "HgN/A
6:50 PM82 °FPassing clouds.14 mph32%29.95 "HgN/A
Weather by CustomWeather, © 2014

See weather overviewHow to use our weather pages